FLOCK 2K-31 (42869 NORAD) Tracking and Keplerian Element Data

This shows tracking and keplerian element data for the satellite.

Feedback or suggestion? Click here.




ElementValue
Catalog42869
NameFLOCK 2K-31
Epoch Orbit23653
Epoch Day272.79975881
Epoch Year2021
RAAN120.4837
Inclination96.8402
Eccentricity0.0009126
Argument of Perigee52.0835
Mean Anonmoly308.1241
Mean Motion15.48120276
Decay Rate0.00020641
L11 42869U 17042AW 21272.79975881 .00020641 00000-0 39384-3 0 9994
L22 42869 96.8402 120.4837 0009126 52.0835 308.1241 15.48120276236530

Live tracking and technical data element details for FLOCK 2K-31 (NORAD 42869). FLOCK 2K-31 can be tracked NOW for your location showing map with azimuth and elevation plus other details from your city location.

Track the satellite on the map from your city or location and see movement details for azimuth, elevation, latitude, longitude, range, height, and movement on the map or in text.







IsCatalogInMostPopularTable: catalog: 42869, numindb: 650
Update: records affected: 1



GetName: 42869 FLOCK 2K-31

Hit Count: updated at: Wed, 28 Sep 2022 23:01:57 GMT